Home   Weather   Scranton   Past weeks

Flag for USA Past Weather in Scranton, Pennsylvania, USA — Yesterday and Last 2 Weeks

Now
38 °F

Fog.


Feels Like: 33 °F
Forecast: 34 / 42 °F
Wind: 6 mph from Southwest

Location: Barre - Scranton - Wilkes-Barre / Scranton International Airport

Current Time: Jan 19, 2017 at 1:51:01 am

Latest Report: Jan 19, 2017 at 1:37 am


Visibility: 4 mi

Pressure: 30.00 "Hg

Humidity: 100%

Dew Point: 38 °F

Location of ScrantonLocation

Past Weather in Scranton — Graph

°F

Scranton Temperature Yesterday

Maximum temperature yesterday: 41 °F (at 1:54 pm)
Minimum temperature yesterday: 35 °F (at 6:54 am)
Average temperature yesterday: 38 °F

High & Low Weather Summary for the Past Weeks

 TemperatureHumidityPressure
High56 °F (Jan 12, 11:54 am)100% (Jan 4, 12:03 am)30.69 "Hg (Jan 4, 12:03 am)
Low9 °F (Jan 9, 2:54 am)30% (Jan 8, 12:54 pm)29.42 "Hg (Jan 4, 2:34 am)
Average30 °F76%30.16 "Hg
* Reported Jan 4 12:03 am — Jan 19 12:43 am, Scranton, Weather by CustomWeather, © 2017

Note: Actual official high and low records may vary slightly from our data, if they occured in-between our weather recording intervals... More about our weather records

Advertising

Scranton Weather History for the Previous 24 Hours

Scroll right to see more
 ConditionsComfort  
Time TempWeatherWind HumidityBarometerVisibility
12:43 am
Thu, Jan 19
38 °FFog.6 mph100%30.01 "Hg2 mi
12:24 am38 °FFog.5 mph100%30.00 "Hg4 mi
12:01 am38 °FFog.No wind100%30.00 "Hg4 mi
11:26 pm
Wed, Jan 18
37 °FFog.No wind100%30.01 "Hg2 mi
11:14 pm37 °FFog.No wind100%30.01 "Hg2 mi
11:05 pm38 °FFog.No wind100%30.01 "Hg2 mi
10:21 pm38 °FFog.No wind100%30.01 "Hg1 mi
10:08 pm38 °FFog.No wind100%30.01 "Hg2 mi
10:01 pm38 °FFog.No wind100%30.01 "Hg4 mi
9:32 pm38 °FFog.No wind100%30.02 "Hg2 mi
9:15 pm38 °FFog.No wind100%30.01 "Hg4 mi
9:05 pm38 °FFog.No wind100%30.01 "Hg2 mi
8:54 pm38 °FFog.No wind100%30.03 "Hg5 mi
7:54 pm39 °FFog.No wind96%30.03 "Hg6 mi
6:54 pm39 °FOvercast.No wind96%30.03 "Hg10 mi
5:54 pm40 °FOvercast.No wind93%30.03 "Hg8 mi
5:15 pm40 °FMostly cloudy.No wind97%30.01 "Hg7 mi
4:54 pm40 °FFog.No wind97%30.01 "Hg4 mi
3:54 pm40 °FOvercast.6 mph97%29.98 "Hg7 mi
3:14 pm40 °FOvercast.5 mph97%29.95 "Hg8 mi
2:54 pm41 °FOvercast.7 mph93%29.96 "Hg9 mi
2:27 pm41 °FMore clouds than sun.3 mph93%29.93 "Hg9 mi
1:54 pm41 °FOvercast.No wind93%29.93 "Hg9 mi
1:37 pm40 °FFog.5 mph97%29.93 "Hg4 mi
12:54 pm39 °FLight rain. Fog.5 mph100%29.93 "Hg2 mi
12:40 pm39 °FLight rain. Fog.3 mph100%29.92 "Hg2 mi
12:32 pm39 °FLight rain. Fog.3 mph100%29.92 "Hg2 mi
11:54 am38 °FFog.5 mph100%29.93 "Hg1 mi
11:13 am37 °FFog.3 mph100%29.92 "Hg1 mi
10:54 am37 °FFog.No wind100%29.93 "Hg1 mi
10:39 am37 °FFog.No wind100%29.93 "Hg0 mi
9:54 am36 °FFog.3 mph100%29.94 "Hg0 mi
9:30 am37 °FLight rain. Fog.No wind100%29.92 "Hg1 mi
8:54 am36 °FLight rain. Fog.No wind100%29.93 "Hg1 mi
8:19 am36 °FLight rain. Fog.No wind100%29.90 "Hg2 mi
7:54 am35 °FLight rain. Fog.3 mph100%29.91 "Hg2 mi
7:36 am35 °FLight rain. Fog.No wind100%29.89 "Hg2 mi
6:54 am35 °FLight rain. Fog.No wind100%29.90 "Hg2 mi
6:11 am36 °FLight rain. Fog.No wind100%29.88 "Hg2 mi
5:54 am36 °FLight rain. Fog.No wind92%29.89 "Hg3 mi
4:54 am36 °FOvercast.3 mph97%29.88 "Hg8 mi
3:54 am37 °FOvercast.No wind93%29.87 "Hg10 mi
2:54 am37 °FOvercast.6 mph93%29.88 "Hg10 mi
2:44 am37 °FOvercast.5 mph93%29.88 "Hg10 mi
1:54 am37 °FOvercast.5 mph96%29.88 "Hg10 mi
1:16 am37 °FOvercast.5 mph96%29.88 "Hg10 mi
1:06 am37 °FOvercast.No wind96%29.88 "Hg10 mi
Weather by CustomWeather, © 2017

See weather overviewHow to use our weather pages